Stündliche Wetter Barkowo

Heute, 28 Oktober, Mittwoch

Zeit Temperatur Niederschläge Wind Luftdruck Luftfeuchtigkeit
00:00 +7°C° 0 mm 6 m/S 753 mmHg 79%
01:00 +7°C° 0 mm 6 m/S 753 mmHg 79%
02:00 +7°C° 0 mm 6 m/S 752 mmHg 78%
03:00 +7°C° 0 mm 6 m/S 752 mmHg 78%
04:00 +7°C° 0 mm 6 m/S 752 mmHg 78%
05:00 +6°C° 0 mm 7 m/S 752 mmHg 76%
06:00 +6°C° 0 mm 7 m/S 752 mmHg 75%
07:00 +6°C° 0 mm 7 m/S 752 mmHg 74%
08:00 +8°C° 0 mm 7 m/S 752 mmHg 74%
09:00 +8°C° 0 mm 7 m/S 752 mmHg 74%
10:00 +8°C° 0 mm 7 m/S 752 mmHg 74%
11:00 +8°C° 0.1 mm 6 m/S 752 mmHg 77%
12:00 +8°C° 0.1 mm 6 m/S 752 mmHg 81%
13:00 +9°C° 0.1 mm 6 m/S 752 mmHg 85%
14:00 +9°C° 0.4 mm 5 m/S 753 mmHg 86%
15:00 +9°C° 0.4 mm 5 m/S 753 mmHg 88%
16:00 +9°C° 0.4 mm 5 m/S 753 mmHg 90%
17:00 +10°C° 0 mm 4 m/S 753 mmHg 91%
18:00 +8°C° 0 mm 4 m/S 753 mmHg 92%
19:00 +8°C° 0 mm 4 m/S 753 mmHg 93%
20:00 +8°C° 0 mm 4 m/S 753 mmHg 93%
21:00 +8°C° 0 mm 4 m/S 753 mmHg 92%
22:00 +8°C° 0 mm 4 m/S 753 mmHg 92%
23:00 +7°C° 0 mm 4 m/S 754 mmHg 91%

Morgen, 29 Oktober, Donnerstag

Zeit Temperatur Niederschläge Wind Luftdruck Luftfeuchtigkeit
00:00 +7°C° 0 mm 4 m/S 754 mmHg 91%
01:00 +7°C° 0 mm 5 m/S 754 mmHg 90%
02:00 +7°C° 0 mm 5 m/S 754 mmHg 90%
03:00 +7°C° 0 mm 5 m/S 753 mmHg 89%
04:00 +6°C° 0 mm 5 m/S 753 mmHg 88%
05:00 +7°C° 0 mm 6 m/S 753 mmHg 87%
06:00 +7°C° 0 mm 6 m/S 753 mmHg 85%
07:00 +8°C° 0 mm 6 m/S 753 mmHg 83%
08:00 +8°C° 0.1 mm 6 m/S 753 mmHg 82%
09:00 +9°C° 0.1 mm 7 m/S 753 mmHg 80%
10:00 +10°C° 0.1 mm 7 m/S 753 mmHg 79%
11:00 +10°C° 0.3 mm 7 m/S 753 mmHg 76%
12:00 +10°C° 0.3 mm 6 m/S 753 mmHg 72%
13:00 +10°C° 0.3 mm 6 m/S 754 mmHg 69%
14:00 +10°C° 0.2 mm 6 m/S 754 mmHg 71%
15:00 +9°C° 0.2 mm 6 m/S 754 mmHg 74%
16:00 +9°C° 0.2 mm 5 m/S 755 mmHg 76%
17:00 +8°C° 0.1 mm 5 m/S 755 mmHg 78%
18:00 +8°C° 0.1 mm 5 m/S 756 mmHg 81%
19:00 +7°C° 0.1 mm 5 m/S 756 mmHg 83%
20:00 +7°C° 0 mm 5 m/S 757 mmHg 85%
21:00 +7°C° 0 mm 5 m/S 757 mmHg 86%
22:00 +6°C° 0 mm 5 m/S 758 mmHg 88%
23:00 +6°C° 0 mm 5 m/S 758 mmHg 89%

übermorgen, 30 Oktober, Freitag

Zeit Temperatur Niederschläge Wind Luftdruck Luftfeuchtigkeit
00:00 +6°C° 0 mm 4 m/S 758 mmHg 91%
01:00 +5°C° 0 mm 4 m/S 758 mmHg 92%
02:00 +5°C° 0 mm 4 m/S 758 mmHg 92%
03:00 +5°C° 0 mm 4 m/S 758 mmHg 91%
04:00 +5°C° 0 mm 4 m/S 758 mmHg 91%
05:00 +5°C° 0.1 mm 4 m/S 758 mmHg 91%
06:00 +5°C° 0.1 mm 4 m/S 758 mmHg 91%
07:00 +5°C° 0.1 mm 4 m/S 757 mmHg 90%
08:00 +6°C° 1.2 mm 5 m/S 757 mmHg 92%
09:00 +6°C° 1.2 mm 5 m/S 756 mmHg 93%
10:00 +7°C° 1.2 mm 5 m/S 756 mmHg 94%
11:00 +7°C° 1.7 mm 5 m/S 756 mmHg 95%
12:00 +8°C° 1.7 mm 4 m/S 756 mmHg 96%
13:00 +8°C° 1.7 mm 4 m/S 756 mmHg 97%
14:00 +10°C° 1.2 mm 4 m/S 756 mmHg 96%
15:00 +9°C° 1.2 mm 5 m/S 756 mmHg 96%
16:00 +10°C° 1.2 mm 5 m/S 756 mmHg 96%
17:00 +10°C° 0.4 mm 5 m/S 757 mmHg 96%
18:00 +11°C° 0.4 mm 4 m/S 757 mmHg 96%
19:00 +11°C° 0.4 mm 4 m/S 757 mmHg 97%
20:00 +11°C° 0.1 mm 3 m/S 758 mmHg 97%
21:00 +11°C° 0.1 mm 3 m/S 759 mmHg 97%
22:00 +12°C° 0.1 mm 2 m/S 759 mmHg 97%
23:00 +12°C° 0.1 mm 2 m/S 759 mmHg 97%

31 Oktober, Samstag

Zeit Temperatur Niederschläge Wind Luftdruck Luftfeuchtigkeit
00:00 +12°C° 0.1 mm 2 m/S 760 mmHg 97%
01:00 +12°C° 0.1 mm 2 m/S 760 mmHg 96%
02:00 +12°C° 0 mm 2 m/S 761 mmHg 96%
03:00 +12°C° 0 mm 2 m/S 761 mmHg 96%
04:00 +12°C° 0 mm 2 m/S 761 mmHg 96%
05:00 +12°C° 0 mm 2 m/S 762 mmHg 96%
06:00 +12°C° 0 mm 2 m/S 762 mmHg 96%
07:00 +10°C° 0 mm 2 m/S 762 mmHg 96%
08:00 +10°C° 0 mm 3 m/S 763 mmHg 95%
09:00 +10°C° 0 mm 3 m/S 763 mmHg 94%
10:00 +10°C° 0 mm 4 m/S 763 mmHg 93%
11:00 +11°C° 0 mm 4 m/S 763 mmHg 93%
12:00 +11°C° 0 mm 4 m/S 763 mmHg 92%
13:00 +11°C° 0 mm 4 m/S 763 mmHg 91%
14:00 +11°C° 0 mm 4 m/S 763 mmHg 92%
15:00 +11°C° 0 mm 4 m/S 763 mmHg 92%
16:00 +11°C° 0 mm 4 m/S 763 mmHg 92%
17:00 +11°C° 0 mm 4 m/S 763 mmHg 92%
18:00 +10°C° 0 mm 5 m/S 763 mmHg 93%
19:00 +10°C° 0 mm 5 m/S 763 mmHg 93%
20:00 +10°C° 0 mm 5 m/S 763 mmHg 93%
21:00 +10°C° 0 mm 5 m/S 763 mmHg 93%
22:00 +10°C° 0 mm 5 m/S 763 mmHg 93%
23:00 +10°C° 0 mm 5 m/S 763 mmHg 93%

1 November, Sonntag

Zeit Temperatur Niederschläge Wind Luftdruck Luftfeuchtigkeit
00:00 +9°C° 0 mm 5 m/S 763 mmHg 93%
01:00 +9°C° 0 mm 6 m/S 762 mmHg 93%
02:00 +9°C° 0 mm 6 m/S 762 mmHg 91%
03:00 +9°C° 0 mm 6 m/S 762 mmHg 90%
04:00 +9°C° 0 mm 6 m/S 761 mmHg 89%
05:00 +8°C° 0 mm 7 m/S 761 mmHg 89%
06:00 +8°C° 0 mm 7 m/S 761 mmHg 88%
07:00 +6°C° 0 mm 7 m/S 760 mmHg 87%
08:00 +8°C° 0 mm 7 m/S 760 mmHg 86%
09:00 +9°C° 0 mm 7 m/S 760 mmHg 85%
10:00 +10°C° 0 mm 8 m/S 759 mmHg 83%
11:00 +11°C° 0 mm 8 m/S 759 mmHg 81%
12:00 +12°C° 0 mm 8 m/S 759 mmHg 78%
13:00 +13°C° 0 mm 8 m/S 758 mmHg 75%
14:00 +14°C° 0 mm 7 m/S 758 mmHg 77%
15:00 +14°C° 0 mm 7 m/S 758 mmHg 78%
16:00 +12°C° 0 mm 7 m/S 758 mmHg 79%
17:00 +12°C° 0 mm 7 m/S 758 mmHg 80%
18:00 +12°C° 0 mm 7 m/S 758 mmHg 80%
19:00 +12°C° 0 mm 7 m/S 758 mmHg 80%
20:00 +12°C° 0.1 mm 7 m/S 758 mmHg 81%
21:00 +13°C° 0.1 mm 6 m/S 758 mmHg 81%
22:00 +13°C° 0.1 mm 6 m/S 758 mmHg 82%
23:00 +13°C° 0 mm 6 m/S 758 mmHg 83%

2 November, Montag

Zeit Temperatur Niederschläge Wind Luftdruck Luftfeuchtigkeit
00:00 +13°C° 0 mm 6 m/S 758 mmHg 85%
01:00 +13°C° 0 mm 6 m/S 758 mmHg 86%
02:00 +13°C° 0 mm 6 m/S 758 mmHg 85%
03:00 +13°C° 0 mm 6 m/S 758 mmHg 85%
04:00 +13°C° 0 mm 6 m/S 757 mmHg 84%
05:00 +13°C° 0 mm 6 m/S 758 mmHg 83%
06:00 +13°C° 0 mm 6 m/S 758 mmHg 82%
07:00 +13°C° 0 mm 6 m/S 758 mmHg 81%
08:00 +14°C° 0 mm 6 m/S 758 mmHg 79%
09:00 +14°C° 0 mm 6 m/S 758 mmHg 76%
10:00 +15°C° 0 mm 6 m/S 758 mmHg 74%
11:00 +15°C° 0 mm 6 m/S 758 mmHg 73%
12:00 +16°C° 0 mm 6 m/S 758 mmHg 73%
13:00 +16°C° 0 mm 6 m/S 758 mmHg 72%
14:00 +16°C° 0 mm 5 m/S 758 mmHg 74%
15:00 +16°C° 0 mm 5 m/S 758 mmHg 76%
16:00 +15°C° 0 mm 5 m/S 758 mmHg 78%
17:00 +15°C° 0 mm 5 m/S 758 mmHg 80%
18:00 +14°C° 0 mm 4 m/S 759 mmHg 82%
19:00 +14°C° 0 mm 4 m/S 759 mmHg 84%
20:00 +14°C° 0 mm 4 m/S 759 mmHg 85%
21:00 +14°C° 0 mm 4 m/S 759 mmHg 86%
22:00 +13°C° 0 mm 5 m/S 759 mmHg 86%
23:00 +13°C° 0 mm 5 m/S 759 mmHg 85%
Mehr zeigen